THORAD AGENA D DEB

Satellite information

Favourite Embed

Satellite Type and Status

DEBRISIN ORBIT

Key statistics

Satellite THORAD AGENA D DEB at a glance.

Uptime

20290

Days in orbit

Revolutions

≈ 13.8

Per day

Orbit

SSO

Sun Synchronous Orbit

Inclination

100.0

Latest

Satellite identification and parameters

Extended collection of information and parameters for THORAD AGENA D DEB.

Object identification

Identified? True

Debris? True

Object name: THORAD AGENA D DEB

International designator: 1970-025TL

Object number (NORAD): 42554

Object ID (CCSDS): 42554

Country: UNITED STATES OF AMERICA (US)

Current information (Y/N): Y

RCS size: SMALL

Orbital parameters

Period: 104.321 minutes

Inclination: 100.0409 deg

SMA: 7340.748 km

Apoapsis: 990.414 km

Periapsis: 934.811 km

RAAN: 84.8484 deg

Eccentricy: 0.0037873

Argument of periapsis: 300.6662 deg

Mean anomaly: 59.0757 deg

Mean motion: 13.80359865 rev/day

Mean motion (dot): 0.00001289 rev/day2

B* drag term: 0.0012748 1/REarth

Two-line elements (TLE)

Creation date: Oct. 24, 2025, 9:16 p.m.

Reference frame: TEME

Reference center: EARTH

Epoch: Oct. 24, 2025, 4:40 a.m. UTC

TLE line 0: 0 THORAD AGENA D DEB

TLE line 1: 1 42554U 70025TL 25297.19452520 .00001289 00000-0 12748-2 0 9991

TLE line 2: 2 42554 100.0409 84.8484 0037873 300.6662 59.0757 13.80359865553344

Live tracking on map

Real-time ground track for satellite THORAD AGENA D DEB.

In-orbit conjunctions

A list of the most updated potential collisions computed for object THORAD AGENA D DEB.

Target Orbit TCA Probability of collision Miss distance Type
SL-8 R/B LEO 2025-05-31 13:54:48 0.0001531208 322.0 (m) ROCKET BODY
COSMOS 2218 LEO 2025-01-30 16:47:12 0.0002065934 192.0 (m) PAYLOAD
COSMOS 2327 LEO 2024-11-02 15:28:16 0.0001141521 410.0 (m) PAYLOAD
TATIANA LEO 2024-09-05 10:05:39 0.0002282045 259.0 (m) PAYLOAD

Associated space launch

Meteorological research and development satellite

THORAD AGENA D DEB was lifted into orbit during the mission ‘Thorad SLV-2G Agena D | Nimbus 4’, on board a Thorad SLV-2G Agena D space rocket.

The launch took place on April 8, 1970, 8:17 a.m. from Space Launch Complex 2E.

For more information about the launch, click the button.

Launch to space Thorad SLV-2G Agena D | Nimbus 4
Thorad SLV-2G Agena D | Nimbus 4

Agency: N/A

Status: Launch Successful

Launch date: April 8, 1970, 8:17 a.m. UTC

Rocket: Thorad SLV-2G Agena D

Launch pad: Space Launch Complex 2E

Location: Vandenberg SFB, CA, USA

...

Latest news about this satellite

There are no fresh news available about this satellite. Check back as we update our databases every day.


Newsletter sign-up

Weekly statistics, charts and insights to help you stay on top of the space industry.